Time,TemperatureF,DewpointF,PressureIn,WindDirection,WindDirectionDegrees,WindSpeedMPH,WindSpeedGustMPH,Humidity,HourlyPrecipIn,Conditions,Clouds,dailyrainin,SoftwareType,DateUTC
2013-06-27 00:01:00,71.0,68.0,29.79,WNW,292,0.0,0.0,89,0.00,,,0.85,,2013-06-27 04:01:00,
2013-06-27 00:11:00,71.0,68.0,29.79,WNW,292,0.0,0.0,89,0.00,,,0.85,,2013-06-27 04:11:00,
2013-06-27 00:32:00,71.0,68.0,29.79,WNW,292,0.0,0.0,89,0.00,,,0.85,,2013-06-27 04:32:00,
2013-06-27 00:42:00,71.0,68.0,29.79,WNW,292,0.0,0.0,89,0.00,,,0.83,,2013-06-27 04:42:00,
2013-06-27 01:02:00,71.0,68.0,29.80,WNW,292,0.0,0.0,89,0.00,,,0.83,,2013-06-27 05:02:00,
2013-06-27 01:12:00,71.0,68.0,29.80,WNW,292,0.0,0.0,89,0.00,,,0.83,,2013-06-27 05:12:00,
2013-06-27 01:32:00,71.0,68.0,29.80,North,-999,-999.0,-999.0,89,0.00,,,0.83,,2013-06-27 05:32:00,
2013-06-27 01:42:00,71.0,68.0,29.79,SE,135,0.0,0.0,90,0.00,,,0.83,,2013-06-27 05:42:00,
2013-06-27 02:01:00,71.0,68.0,29.78,SE,135,0.0,0.0,90,0.08,,,0.91,,2013-06-27 06:01:00,
2013-06-27 02:12:00,71.0,68.0,29.78,SE,135,0.0,0.0,90,0.15,,,0.98,,2013-06-27 06:12:00,
2013-06-27 02:34:00,71.0,68.0,29.77,SE,135,0.0,0.0,91,0.15,,,0.98,,2013-06-27 06:34:00,
2013-06-27 02:43:00,71.0,68.0,29.78,SE,135,0.0,0.0,91,0.09,,,1.00,,2013-06-27 06:43:00,
2013-06-27 02:53:00,71.0,68.0,29.78,SE,135,0.0,0.0,91,0.09,,,1.00,,2013-06-27 06:53:00,
2013-06-27 03:02:00,71.0,68.0,29.78,North,-999,-999.0,-999.0,91,0.09,,,1.00,,2013-06-27 07:02:00,
2013-06-27 03:12:00,71.0,68.0,29.78,North,-999,-999.0,-999.0,91,0.09,,,1.00,,2013-06-27 07:12:00,
2013-06-27 03:22:00,71.0,68.0,29.78,North,-999,-999.0,-999.0,91,0.09,,,1.00,,2013-06-27 07:22:00,
2013-06-27 03:33:00,71.0,68.0,29.78,North,-999,-999.0,-999.0,91,0.09,,,1.00,,2013-06-27 07:33:00,
2013-06-27 03:42:00,71.0,68.0,29.78,North,-999,-999.0,-999.0,91,0.09,,,1.00,,2013-06-27 07:42:00,
2013-06-27 05:02:00,71.0,68.0,29.77,West,270,0.0,0.0,91,0.00,,,1.00,,2013-06-27 09:02:00,
2013-06-27 05:11:00,71.0,68.0,29.77,West,270,0.0,0.0,91,0.00,,,1.00,,2013-06-27 09:11:00,
2013-06-27 05:22:00,71.0,68.0,29.77,West,270,0.0,0.0,91,0.00,,,1.00,,2013-06-27 09:22:00,
2013-06-27 05:34:00,71.0,68.0,29.77,WNW,292,0.0,0.0,91,0.32,,,1.32,,2013-06-27 09:34:00,
2013-06-27 05:43:00,71.0,68.0,29.77,West,270,0.0,0.0,91,0.32,,,1.32,,2013-06-27 09:43:00,
2013-06-27 05:53:00,71.0,68.0,29.78,WNW,292,0.0,0.0,91,0.32,,,1.32,,2013-06-27 09:53:00,
2013-06-27 06:01:00,71.0,68.0,29.78,WNW,292,0.0,0.0,91,0.32,,,1.32,,2013-06-27 10:01:00,
2013-06-27 06:11:00,71.0,68.0,29.78,WNW,292,0.0,0.0,91,0.32,,,1.32,,2013-06-27 10:11:00,
2013-06-27 06:22:00,71.0,68.0,29.78,WNW,292,0.0,0.0,91,0.30,,,1.32,,2013-06-27 10:22:00,
2013-06-27 06:32:00,71.0,68.0,29.78,West,270,0.0,0.0,91,0.00,,,1.32,,2013-06-27 10:32:00,
2013-06-27 06:54:00,71.0,69.0,29.79,SW,225,0.0,0.0,92,0.00,,,1.32,,2013-06-27 10:54:00,
2013-06-27 07:02:00,71.0,69.0,29.79,West,270,0.0,0.0,92,0.00,,,1.32,,2013-06-27 11:02:00,
2013-06-27 07:52:00,71.0,69.0,29.79,West,270,0.0,0.0,92,0.00,,,1.06,,2013-06-27 11:52:00,
2013-06-27 08:02:00,71.0,69.0,29.80,West,270,0.0,0.0,92,0.00,,,1.04,,2013-06-27 12:02:00,
2013-06-27 08:11:00,71.0,69.0,29.80,West,270,0.0,0.0,92,0.00,,,1.04,,2013-06-27 12:11:00,
2013-06-27 08:22:00,71.0,69.0,29.80,West,270,0.0,0.0,92,0.00,,,1.04,,2013-06-27 12:22:00,
2013-06-27 08:34:00,71.0,69.0,29.80,SSW,202,0.0,0.0,92,0.00,,,1.02,,2013-06-27 12:34:00,
2013-06-27 08:42:00,71.0,69.0,29.81,SSW,202,0.0,0.0,92,0.00,,,1.02,,2013-06-27 12:42:00,
2013-06-27 09:01:00,71.0,69.0,29.80,SSW,202,0.0,0.0,92,0.00,,,1.02,,2013-06-27 13:01:00,
2013-06-27 09:22:00,70.0,68.0,29.80,WNW,292,0.0,0.0,92,0.00,,,1.02,,2013-06-27 13:22:00,
2013-06-27 09:34:00,70.0,68.0,29.80,West,270,0.0,0.0,92,0.00,,,1.00,,2013-06-27 13:34:00,
2013-06-27 09:43:00,70.0,68.0,29.81,WNW,292,0.0,0.0,92,0.00,,,0.87,,2013-06-27 13:43:00,
2013-06-27 09:52:00,70.0,68.0,29.81,WNW,292,0.0,0.0,92,0.00,,,0.87,,2013-06-27 13:52:00,
2013-06-27 10:02:00,71.0,69.0,29.81,WNW,292,0.0,0.0,92,0.00,,,0.87,,2013-06-27 14:02:00,
2013-06-27 10:11:00,71.0,69.0,29.80,NW,315,0.0,3.0,92,0.00,,,0.87,,2013-06-27 14:11:00,
2013-06-27 10:43:00,71.0,69.0,29.79,WSW,247,0.0,0.0,92,0.00,,,0.87,,2013-06-27 14:43:00,
2013-06-27 11:42:00,72.0,69.0,29.81,NW,315,0.0,0.0,89,0.00,,,0.87,,2013-06-27 15:42:00,
2013-06-27 11:52:00,72.0,69.0,29.82,NNW,337,0.0,0.0,89,0.00,,,0.87,,2013-06-27 15:52:00,
2013-06-27 18:58:00,79.0,71.0,29.77,North,-999,-999.0,-999.0,77,0.00,,,0.49,,2013-06-27 22:58:00,
2013-06-27 19:06:00,79.0,71.0,29.77,North,-999,-999.0,-999.0,77,0.00,,,0.49,,2013-06-27 23:06:00,
2013-06-27 19:15:00,79.0,71.0,29.77,North,-999,-999.0,-999.0,77,0.00,,,0.49,,2013-06-27 23:15:00,
2013-06-27 19:25:00,79.0,71.0,29.77,North,-999,-999.0,-999.0,77,0.00,,,0.49,,2013-06-27 23:25:00,
2013-06-27 20:46:00,76.0,68.0,29.75,North,-999,-999.0,-999.0,77,0.00,,,0.49,,2013-06-28 00:46:00,
2013-06-27 20:56:00,76.0,68.0,29.74,North,-999,-999.0,-999.0,77,0.00,,,0.49,,2013-06-28 00:56:00,
2013-06-27 21:09:00,76.0,69.0,29.74,SW,225,0.0,0.0,78,0.00,,,0.49,,2013-06-28 01:09:00,
2013-06-27 21:14:00,76.0,69.0,29.73,SW,225,0.0,0.0,78,0.00,,,0.49,,2013-06-28 01:14:00,
2013-06-27 21:25:00,75.0,68.0,29.73,SW,225,0.0,0.0,78,0.00,,,0.49,,2013-06-28 01:25:00,
2013-06-27 21:35:00,75.0,68.0,29.72,SW,225,0.0,0.0,78,0.00,,,0.49,,2013-06-28 01:35:00,
2013-06-27 21:45:00,76.0,69.0,29.71,SW,225,0.0,0.0,78,0.00,,,0.49,,2013-06-28 01:45:00,
2013-06-27 21:56:00,76.0,69.0,29.72,South,180,0.0,0.0,78,0.00,,,0.49,,2013-06-28 01:56:00,
2013-06-27 22:17:00,75.0,68.0,29.72,West,270,0.0,0.0,80,0.00,,,0.49,,2013-06-28 02:17:00,
2013-06-27 22:23:00,75.0,68.0,29.73,SW,225,0.0,0.0,80,0.00,,,0.49,,2013-06-28 02:23:00,
2013-06-27 22:27:00,75.0,68.0,29.73,West,270,0.0,0.0,80,0.00,,,0.49,,2013-06-28 02:27:00,
2013-06-27 22:36:00,75.0,68.0,29.73,SW,225,0.0,0.0,80,0.00,,,0.49,,2013-06-28 02:36:00,
2013-06-27 22:54:00,75.0,68.0,29.73,SW,225,0.0,0.0,80,0.00,,,0.49,,2013-06-28 02:54:00,
2013-06-27 23:07:00,75.0,68.0,29.73,SW,225,0.0,0.0,80,0.00,,,0.49,,2013-06-28 03:07:00,
2013-06-27 23:14:00,75.0,68.0,29.73,SW,225,0.0,0.0,80,0.00,,,0.49,,2013-06-28 03:14:00,